FLOCK 3P-80 (42026 NORAD) Tracking and Keplerian Element Data

This shows tracking and keplerian element data for the satellite.

Feedback or suggestion? Click here.




ElementValue
Catalog42026
NameFLOCK 3P-80
Epoch Orbit18668
Epoch Day189.86455484
Epoch Year2020
RAAN257.6694
Inclination97.3664
Eccentricity0.000634
Argument of Perigee217.6608
Mean Anonmoly142.4187
Mean Motion15.26404141
Decay Rate8.75E-06
L11 42026U 17008CG 20189.86455484 .00000875 00000-0 36399-4 0 9998
L22 42026 97.3664 257.6694 0006340 217.6608 142.4187 15.26404141186687

Live tracking and technical data element details for FLOCK 3P-80 (NORAD 42026). FLOCK 3P-80 can be tracked NOW for your location showing map with azimuth and elevation plus other details from your city location.

Track the satellite on the map from your city or location and see movement details for azimuth, elevation, latitude, longitude, range, height, and movement on the map or in text.







IsCatalogInMostPopularTable: catalog: 42026, numindb: 453
Update: records affected: 1



GetName: 42026 FLOCK 3P-80

Hit Count: updated at: Wed, 08 Jul 2020 22:51:27 GMT